Flag for U.S.A. Weather past 2 weeks in Lafayette, Louisiana, U.S.A.

Now
87 °F

Sunny.


Feels Like: 93 °F
Forecast: 71 / 87 °F
Wind: 5 mph from North

Location: Lafayette Regional Airport

Current Time: Sep 30, 2014 at 5:48:59 PM

Latest Report: Sep 30, 2014 at 4:53 PM


Visibility: 10 mi

Pressure: 29.81 "Hg

Humidity: 59%

Dew point: 71 °F

Location of LafayetteLocation

Historic Weather in Lafayette — Graph

°F

Lafayette temperature yesterday

Maximum temperature yesterday: 85 °F (at 3:53 PM)
Minimum temperature yesterday: 73 °F (at 3:53 AM)
Average temperature yesterday: 77 °F

Past Weeks' High & Low Weather Summary

 TemperatureHumidityPressure
High91 °F (Sep 16, 12:53 PM)100% (Sep 16, 1:53 AM)30.16 "Hg (Sep 16, 1:53 AM)
Low59 °F (Sep 23, 6:53 AM)35% (Sep 23, 3:53 PM)29.82 "Hg (Sep 30, 3:53 PM)
Average77 °F81%30.00 "Hg
* Reported Sep 15 3:53 PM — Sep 30 3:53 PM, Lafayette, Weather by CustomWeather, © 2014

Note: Actual official high and low records may vary slightly from our data, if they occured in-between our weather recording intervals... More about our weather records

Advertising

Lafayette weather history for previous 24 hours

 ConditionsComfort  
Time TempWeatherWind HumidityBarometerVisibility
3:53 PM
Sep 30
89 °FSunny.5 mph55%29.82 "Hg10 mi
2:53 PM87 °FSunny.5 mph57%29.83 "Hg10 mi
1:53 PM89 °FPassing clouds.5 mph53%29.85 "Hg10 mi
12:53 PM86 °FScattered clouds.No wind59%29.88 "Hg10 mi
11:53 AM85 °FPassing clouds.7 mph63%29.90 "Hg10 mi
10:53 AM85 °FPassing clouds.7 mph65%29.90 "Hg10 mi
9:53 AM82 °FSunny.No wind74%29.91 "Hg10 mi
8:53 AM78 °FSunny.No wind84%29.90 "Hg10 mi
7:53 AM73 °FClear.No wind100%29.90 "Hg7 mi
6:53 AM72 °FFog.No wind97%29.89 "Hg6 mi
5:53 AM71 °FClear.No wind100%29.87 "Hg8 mi
4:53 AM72 °FFog.No wind97%29.87 "Hg5 mi
3:53 AM72 °FFog.No wind100%29.87 "Hg5 mi
2:53 AM72 °FFog.No wind100%29.87 "Hg6 mi
1:53 AM72 °FClear.3 mph100%29.87 "Hg7 mi
12:53 AM73 °FClear.3 mph97%29.87 "Hg8 mi
11:53 PM
Sep 29
73 °FClear.No wind100%29.88 "Hg10 mi
10:53 PM75 °FClear.No wind94%29.89 "Hg10 mi
9:53 PM76 °FPassing clouds.No wind91%29.89 "Hg10 mi
8:53 PM78 °FPassing clouds.5 mph87%29.89 "Hg10 mi
7:53 PM80 °FOvercast.3 mph87%29.87 "Hg10 mi
6:53 PM82 °FMostly cloudy.5 mph77%29.86 "Hg10 mi
5:53 PM83 °FMostly cloudy.No wind72%29.85 "Hg10 mi
Weather by CustomWeather, © 2014

See weather overviewHow to use our weather pages